Regional Weather Roundup
Issued by NWS

Home | Current Version | Previous Version | Text Only | Print | Product List | Glossary Off
Versions: 1 2 3 4 5 6 7 8 9 10 11 12 13 14 15 16 17 18 19 20 21 22 23 24 25 26 27 28 29 30 31 32 33 34 35 36 37 38 39 40 41 42 43 44 45 46 47 48 49 50

000
ASUS43 KOAX 301110
RWRNE
OMARWRNE ALL

WEATHER ROUNDUP FOR NEBRASKA
NATIONAL WEATHER SERVICE OMAHA NE
600 AM CDT SAT MAY 30 2015

NOTES: SATELLITE DATA IS BEING USED TO AUGMENT CLOUD COVER ABOVE
       12000 FEET.
       "FAIR" INDICATES FEW OR NO CLOUDS BELOW 12,000 FEET WITH NO
       SIGNIFICANT WEATHER AND/OR OBSTRUCTIONS TO VISIBILITY.

  * THESE STATIONS DO NOT REPORT WEATHER SUCH AS RAIN...SNOW OR FOG.

NEZ001>004-019>022-054>056-301200-
NEBRASKA PANHANDLE

CITY           SKY/WX    TMP DP  RH WIND       PRES   REMARKS
SCOTTSBLUFF    CLOUDY    47  45  93 E5        30.29F
ALLIANCE       FOG       38  38 100 E3        30.29S VSB 1/4
CHADRON        FOG       39  38  96 E5        30.31R VSB 1/2
KIMBALL          N/A    N/A N/A N/A MISG        N/A
SIDNEY         CLOUDY    46  44  93 CALM      30.31S
$$

NEZ057>060-069>072-079>082-301200-
SOUTHWEST NEBRASKA

CITY           SKY/WX    TMP DP  RH WIND       PRES   REMARKS
NORTH PLATTE   CLEAR     36  35  96 NW7       30.29S WCI  30
IMPERIAL       CLEAR     43  39  86 NW9       30.29F
LEXINGTON      CLEAR     43  40  91 NW10      30.24F
MCCOOK         CLEAR     44  41  89 NW9       30.27S
OGALLALA       CLEAR     38  37  97 N3        30.31S
$$

NEZ005>010-023>029-035>040-094-301200-
NORTH CENTRAL NEBRASKA

CITY           SKY/WX    TMP DP  RH WIND       PRES   REMARKS
VALENTINE      CLEAR     36  34  92 NW3       30.31R
AINSWORTH      CLEAR     39  38  96 NW8       30.30R WCI  33
BROKEN BOW     CLEAR     42  38  85 N8        30.26R
O`NEILL        PTCLDY    42  40  96 N9        30.26R
ORD            CLEAR     41  39  93 NW9       30.23S
THEDFORD       MOCLDY    38  37  97 W5        30.31R WCI  34
$$

NEZ041-046>049-061>064-073>077-083>087-301200-
SOUTH CENTRAL NEBRASKA

CITY           SKY/WX    TMP DP  RH WIND       PRES   REMARKS
GRAND ISLAND   MOCLDY    47  42  83 N16       30.19F
AURORA         CLOUDY    49  45  85 N14G22    30.18S
HASTINGS       CLOUDY    49  41  74 N17       30.17F
HEBRON         CLOUDY    51  44  77 N12G20    30.16R
HOLDREGE       PTCLDY    46  40  82 N13       30.21S
KEARNEY *      PTCLDY    46  39  76 N17       30.20F
YORK           CLOUDY    48  45  87 N16G25    30.16F
$$

NEZ011>018-030>034-042>045-301200-
NORTHEAST NEBRASKA

CITY           SKY/WX    TMP DP  RH WIND       PRES   REMARKS
NORFOLK        CLOUDY    48  42  80 N15       30.20R
ALBION         CLOUDY    47  40  76 N10       30.21R
BLAIR          CLOUDY    50  46  85 N13G21    30.12S
COLUMBUS *     CLOUDY    48  39  71 N17       30.18S
FREMONT        CLOUDY    52  45  76 N12G20    30.14F
TEKAMAH        CLOUDY    53  46  77 N18       30.14R
WAYNE          CLOUDY    47  43  86 N13       30.19R
$$

NEZ050>053-065>068-078-088>093-301200-
SOUTHEAST NEBRASKA

CITY           SKY/WX    TMP DP  RH WIND       PRES   REMARKS
LINCOLN        CLOUDY    52  44  74 N15       30.14S
OMAHA EPPLEY   LGT RAIN  50  49  96 N14       30.11F FOG
BEATRICE       CLOUDY    51  46  82 N16G22    30.12S
FALLS CITY     CLOUDY    53  50  89 N13       30.06S
NEBRASKA CITY  CLOUDY    51  49  92 N13G20    30.09S
PLATTSMOUTH    CLOUDY    51  46  84 N12G21    30.10S
$$

NEZ044-045-051>053-067-301200-
OMAHA AREA

CITY           SKY/WX    TMP DP  RH WIND       PRES   REMARKS
OMAHA EPPLEY   LGT RAIN  50  49  96 N14       30.11F FOG
BLAIR          CLOUDY    50  46  85 N13G21    30.12S
FREMONT        CLOUDY    52  45  76 N12G20    30.14F
MILLARD        CLOUDY    52  47  81 NW10G18   30.12S
OFFUTT AFB     CLOUDY    52  48  87 N15G22    30.10S
PLATTSMOUTH    CLOUDY    51  46  84 N12G21    30.10S
WAHOO          CLOUDY    52  45  79 N16       30.13F
$$


USA.gov is the U.S. government's official web portal to all federal, state and local government web resources and services.